Regional Weather Roundup
Issued by NWS Cleveland, OH

Home | Current Version | Previous Version | Text Only | Print | Product List | Glossary Off
Versions: 1 2 3 4 5 6 7 8 9 10 11 12 13 14 15 16 17 18 19 20 21 22 23 24 25 26 27 28 29 30 31 32 33 34 35 36 37 38 39 40 41 42 43 44 45 46 47 48 49 50

335
ASUS41 KCLE 092102
RWRCLE
OHIO REGIONAL WEATHER ROUNDUP
NATIONAL WEATHER SERVICE CLEVELAND, OH
400 PM EST FRI DEC 09 2016

NOTE: "FAIR" INDICATES FEW OR NO CLOUDS BELOW 12,000 FEET WITH NO
SIGNIFICANT WEATHER AND/OR OBSTRUCTIONS TO VISIBILITY.

OHZ001>008-015>018-024>027-034-035-043-044-092200-
   NORTHWEST OHIO

CITY           SKY/WX    TMP DP  RH WIND       PRES   REMARKS
DEFIANCE       CLOUDY    30  19  63 W6        30.44R WCI  24
FINDLAY        FLURRIES  29  21  72 W14       30.43R WCI  18
TOLEDO EXPRESS CLOUDY    30  20  66 W17G24    30.41R WCI  18
TOLEDO EXEC    CLOUDY    31  22  69 W16       30.42R WCI  20
LIMA           CLOUDY    26  21  81 W14       30.45R WCI  14
$$

OHZ009>014-019>023-028>033-038-089-092200-
   NORTHEAST OHIO

CITY           SKY/WX    TMP DP  RH WIND       PRES   REMARKS
CLE-HOPKINS    CLOUDY    30  20  66 SW14      30.40R WCI  19
CLE-LAKEFRONT  LGT SNOW  30  23  75 SW17      30.38R WCI  18
CUY CO. ARPT   SNOW      30  25  80 W12G21    30.36R VSB 1/2 WCI  21
LORAIN-ELYRIA  CLOUDY    27  21  78 SW15      30.40R WCI  15
ASHTABULA      LGT SNOW  28  23  81 W12G21    30.34R WCI  18
AKRON-CANTON   MOCLDY    27  18  69 W14       30.38R WCI  16
WOOSTER        LGT SNOW  25  19  78 W12       30.40R WCI  14
MANSFIELD      FLURRIES  24  20  84 W9        30.39R WCI  14
YOUNGSTOWN     CLOUDY    28  18  66 W14G22    30.33R WCI  17
$$

OHZ042-051>053-060>062-070>072-077>081-092200-
  SOUTHWEST OHIO

CITY           SKY/WX    TMP DP  RH WIND       PRES   REMARKS
CINC-COVINGTON FLURRIES  25  13  60 W9        30.52R WCI  15
CINC-LUNKEN    CLOUDY    26  16  65 SW8       30.56R WCI  18
HAMILTON       CLOUDY    28  15  58 SW6       30.53R WCI  22
DAYTON         LGT SNOW  25  17  72 W12       30.48R WCI  14
WRIGHT-PAT AFB FLURRIES  26  18  70 W9        30.48R WCI  17
DAYTON GENERAL CLOUDY    27  16  63 W8        30.48R WCI  19
WILMINGTON     PTSUNNY   25  15  66 SW12      30.47S WCI  14
$$

OHZ036-037-039>041-045>050-054>059-063>069-073>076-082>088-092200-
  CENTRAL AND SOUTHEAST OHIO

CITY           SKY/WX    TMP DP  RH WIND       PRES   REMARKS
COLUMBUS       FLURRIES  27  21  78 W13       30.46R WCI  16
OSU AIRPORT    CLOUDY    26  19  74 W14       30.46R WCI  14
BOLTON FIELD   NOT AVBL
RICKENBACK AFB   N/A     28  18  64 W12       30.47R WCI  18
NEWARK         CLOUDY    27  20  75 W10       30.45R WCI  17
MARION         LGT SNOW  25  20  81 W12       30.44R WCI  14
LANCASTER      CLOUDY    28  17  63 W10       30.47R WCI  19
ZANESVILLE     CLOUDY    28  19  69 W8        30.43S WCI  20
NEW PHILLY     LGT SNOW  26  21  81 SW6       30.43R WCI  19
$$




USA.gov is the U.S. government's official web portal to all federal, state and local government web resources and services.